This is the latest recevied weather packets stored in our database for station/object IK6ZNK-3. If no packets are shown the sender has not sent any weather packets the latest 10 day(s).
| Time | Temp. | Humidity | Pressure | Rain* | Wind** | Luminosity | Snow |
|---|---|---|---|---|---|---|---|
| 1778118607 | 16.67° C | 65% | 1003.8 hPa | 0 mm | - | - | - |
| 1778118007 | 16.11° C | 68% | 1003.6 hPa | 0 mm | - | - | - |
| 1778117407 | 15.56° C | 70% | 1003.3 hPa | 0 mm | - | - | - |
| 1778116807 | 15.56° C | 69% | 1003.3 hPa | 0 mm | - | - | - |
| 1778116207 | 15.56° C | 69% | 1003.4 hPa | 0 mm | - | - | - |
| 1778115607 | 16.67° C | 67% | 1003.1 hPa | 0 mm | - | - | - |
| 1778115006 | 17.22° C | 64% | 1003 hPa | 0 mm | - | - | - |
| 1778114406 | 17.22° C | 62% | 1002.9 hPa | 0 mm | - | - | - |
| 1778113807 | 17.78° C | 58% | 1003.1 hPa | 0 mm | - | - | - |
| 1778113207 | 17.78° C | 59% | 1003.2 hPa | 0 mm | - | - | - |
| 1778112607 | 17.78° C | 58% | 1003.2 hPa | 0 mm | - | - | - |
| 1778112007 | 18.33° C | 58% | 1003.2 hPa | 0 mm | - | - | - |
| 1778111406 | 18.33° C | 58% | 1003.5 hPa | 0 mm | - | - | - |
| 1778110806 | 18.33° C | 59% | 1003.3 hPa | 0 mm | - | - | - |
| 1778110207 | 18.33° C | 58% | 1003.3 hPa | 0 mm | - | - | - |
| 1778109607 | 18.89° C | 57% | 1003.4 hPa | 0 mm | - | - | - |
| 1778109007 | 18.89° C | 57% | 1003.6 hPa | 0 mm | - | - | - |
| 1778108408 | 18.89° C | 56% | 1003.2 hPa | 0 mm | - | - | - |
| 1778107807 | 18.89° C | 55% | 1003.5 hPa | 0 mm | - | - | - |
| 1778107207 | 17.78° C | 54% | 1003.5 hPa | 0 mm | - | - | - |
| 1778106608 | 17.78° C | 56% | 1003.7 hPa | 0 mm | - | - | - |
| 1778106008 | 18.33° C | 55% | 1003.8 hPa | 0 mm | - | - | - |
| 1778105407 | 18.33° C | 51% | 1003.6 hPa | 0 mm | - | - | - |
| 1778104811 | 18.33° C | 53% | 1003.8 hPa | 0 mm | - | - | - |
| 1778104207 | 18.33° C | 53% | 1003.8 hPa | 0 mm | - | - | - |
* Rain latest hour (hover to see other rain measurements)
** Current wind speed in m/s (hover to see current wind gust speed)